• In Netherlands
  • List of Countries
  • For 7 days
  • Water Temperature
  • Satellite Maps
  • Weather Map
  • Weather Widgets
  • user-avatar
    Login

    Hourly Weather Jambol

    Today, 15 December, Friday

    Time Temperature Precipitation Wind Pressure Humidity
    00:00 +10°C° 0 mm 1 mps 748 mmHg 84%
    01:00 +9°C° 0 mm 1 mps 748 mmHg 84%
    02:00 +9°C° 0 mm 1 mps 747 mmHg 84%
    03:00 +9°C° 0 mm 1 mps 747 mmHg 84%
    04:00 +9°C° 0 mm 1 mps 747 mmHg 84%
    05:00 +8°C° 0 mm 1 mps 747 mmHg 84%
    06:00 +8°C° 0 mm 1 mps 748 mmHg 84%
    07:00 +8°C° 0 mm 1 mps 748 mmHg 84%
    08:00 +8°C° 0 mm 1 mps 748 mmHg 82%
    09:00 +10°C° 0 mm 1 mps 748 mmHg 76%
    10:00 +11°C° 0 mm 1 mps 748 mmHg 70%
    11:00 +13°C° 0 mm 2 mps 748 mmHg 63%
    12:00 +14°C° 0 mm 2 mps 748 mmHg 60%
    13:00 +13°C° 0 mm 3 mps 747 mmHg 56%
    14:00 +14°C° 0 mm 3 mps 747 mmHg 52%
    15:00 +13°C° 0 mm 3 mps 747 mmHg 57%
    16:00 +12°C° 0 mm 3 mps 747 mmHg 62%
    17:00 +11°C° 0 mm 3 mps 747 mmHg 66%
    18:00 +11°C° 0 mm 3 mps 747 mmHg 70%
    19:00 +11°C° 0 mm 4 mps 746 mmHg 74%
    20:00 +10°C° 0 mm 4 mps 746 mmHg 78%
    21:00 +9°C° 0 mm 5 mps 746 mmHg 81%
    22:00 +9°C° 0 mm 5 mps 746 mmHg 84%
    23:00 +9°C° 0 mm 6 mps 746 mmHg 87%

    Tomorrow, 16 December, Saturday

    Time Temperature Precipitation Wind Pressure Humidity
    00:00 +10°C° 0 mm 6 mps 745 mmHg 88%
    01:00 +10°C° 0 mm 6 mps 745 mmHg 89%
    02:00 +10°C° 0 mm 6 mps 745 mmHg 90%
    03:00 +10°C° 0 mm 6 mps 744 mmHg 90%
    04:00 +10°C° 0 mm 6 mps 744 mmHg 89%
    05:00 +10°C° 0 mm 6 mps 744 mmHg 89%
    06:00 +10°C° 0 mm 6 mps 744 mmHg 88%
    07:00 +10°C° 0 mm 6 mps 744 mmHg 87%
    08:00 +10°C° 0 mm 6 mps 744 mmHg 86%
    09:00 +11°C° 0 mm 6 mps 744 mmHg 79%
    10:00 +12°C° 0 mm 7 mps 744 mmHg 73%
    11:00 +15°C° 0 mm 7 mps 744 mmHg 67%
    12:00 +15°C° 0 mm 7 mps 744 mmHg 64%
    13:00 +16°C° 0 mm 7 mps 744 mmHg 60%
    14:00 +17°C° 0 mm 7 mps 744 mmHg 56%
    15:00 +16°C° 0 mm 7 mps 744 mmHg 61%
    16:00 +15°C° 0 mm 6 mps 744 mmHg 65%
    17:00 +14°C° 0 mm 5 mps 744 mmHg 69%
    18:00 +14°C° 0.1 mm 5 mps 744 mmHg 73%
    19:00 +13°C° 0.1 mm 5 mps 745 mmHg 76%
    20:00 +13°C° 0.1 mm 6 mps 745 mmHg 80%
    21:00 +13°C° 0.6 mm 5 mps 745 mmHg 83%
    22:00 +13°C° 0.6 mm 5 mps 745 mmHg 85%
    23:00 +12°C° 0.6 mm 4 mps 744 mmHg 88%

    Day after tomorrow, 17 December, Sunday

    Time Temperature Precipitation Wind Pressure Humidity
    00:00 +12°C° 1.1 mm 4 mps 744 mmHg 88%
    01:00 +12°C° 1.1 mm 5 mps 744 mmHg 88%
    02:00 +12°C° 1.1 mm 5 mps 743 mmHg 88%
    03:00 +12°C° 0.9 mm 5 mps 743 mmHg 88%
    04:00 +12°C° 0.9 mm 5 mps 743 mmHg 88%
    05:00 +12°C° 0.9 mm 5 mps 743 mmHg 87%
    06:00 +11°C° 0.3 mm 4 mps 743 mmHg 87%
    07:00 +11°C° 0.3 mm 4 mps 744 mmHg 86%
    08:00 +10°C° 0.3 mm 4 mps 744 mmHg 85%
    09:00 +10°C° 0.9 mm 4 mps 744 mmHg 84%
    10:00 +8°C° 0.9 mm 4 mps 745 mmHg 83%
    11:00 +8°C° 0.9 mm 5 mps 745 mmHg 83%
    12:00 +7°C° 0.4 mm 4 mps 745 mmHg 81%
    13:00 +7°C° 0.4 mm 4 mps 745 mmHg 80%
    14:00 +7°C° 0.4 mm 4 mps 745 mmHg 78%
    15:00 +6°C° 0.2 mm 4 mps 746 mmHg 79%
    16:00 +6°C° 0.2 mm 4 mps 746 mmHg 80%
    17:00 +5°C° 0.2 mm 3 mps 747 mmHg 81%
    18:00 +5°C° 0 mm 3 mps 748 mmHg 81%
    19:00 +5°C° 0 mm 3 mps 749 mmHg 82%
    20:00 +4°C° 0 mm 3 mps 750 mmHg 83%
    21:00 +4°C° 0 mm 3 mps 750 mmHg 83%
    22:00 +4°C° 0 mm 3 mps 751 mmHg 83%
    23:00 +5°C° 0 mm 2 mps 752 mmHg 83%

    18 December, Monday

    Time Temperature Precipitation Wind Pressure Humidity
    00:00 +4°C° 0.1 mm 2 mps 752 mmHg 82%
    01:00 +4°C° 0.1 mm 2 mps 753 mmHg 82%
    02:00 +4°C° 0.1 mm 2 mps 753 mmHg 82%
    03:00 +4°C° 0 mm 2 mps 753 mmHg 82%
    04:00 +3°C° 0 mm 2 mps 753 mmHg 82%
    05:00 +4°C° 0 mm 1 mps 754 mmHg 82%
    06:00 +4°C° 0 mm 1 mps 754 mmHg 82%
    07:00 +4°C° 0 mm 1 mps 754 mmHg 81%
    08:00 +4°C° 0 mm 1 mps 755 mmHg 81%
    09:00 +4°C° 0 mm 2 mps 755 mmHg 75%
    10:00 +4°C° 0 mm 2 mps 755 mmHg 69%
    11:00 +5°C° 0 mm 2 mps 755 mmHg 64%
    12:00 +4°C° 0 mm 3 mps 755 mmHg 62%
    13:00 +5°C° 0 mm 3 mps 754 mmHg 60%
    14:00 +5°C° 0 mm 3 mps 754 mmHg 58%
    15:00 +4°C° 0 mm 3 mps 754 mmHg 61%
    16:00 +3°C° 0 mm 3 mps 754 mmHg 64%
    17:00 +3°C° 0 mm 3 mps 754 mmHg 67%
    18:00 +3°C° 0 mm 2 mps 754 mmHg 69%
    19:00 +3°C° 0 mm 2 mps 755 mmHg 70%
    20:00 +2°C° 0 mm 2 mps 755 mmHg 71%
    21:00 +2°C° 0 mm 2 mps 755 mmHg 72%
    22:00 +1°C° 0 mm 2 mps 756 mmHg 72%
    23:00 0°C° 0 mm 3 mps 756 mmHg 73%

    19 December, Tuesday

    Time Temperature Precipitation Wind Pressure Humidity
    00:00 +1°C° 0 mm 2 mps 756 mmHg 74%
    01:00 -1°C° 0 mm 2 mps 756 mmHg 74%
    02:00 -1°C° 0 mm 2 mps 757 mmHg 75%
    03:00 -1°C° 0 mm 2 mps 757 mmHg 74%
    04:00 -1°C° 0 mm 2 mps 757 mmHg 74%
    05:00 +1°C° 0 mm 1 mps 757 mmHg 74%
    06:00 +1°C° 0 mm 1 mps 758 mmHg 73%
    07:00 +1°C° 0 mm 1 mps 758 mmHg 73%
    08:00 +1°C° 0 mm 1 mps 759 mmHg 72%
    09:00 +2°C° 0 mm 1 mps 759 mmHg 66%
    10:00 +3°C° 0 mm 1 mps 760 mmHg 60%
    11:00 +4°C° 0 mm 1 mps 760 mmHg 54%
    12:00 +5°C° 0 mm 1 mps 760 mmHg 52%
    13:00 +5°C° 0 mm 1 mps 760 mmHg 50%
    14:00 +6°C° 0 mm 1 mps 759 mmHg 48%
    15:00 +5°C° 0 mm 1 mps 759 mmHg 52%
    16:00 +4°C° 0 mm 1 mps 759 mmHg 56%
    17:00 +2°C° 0 mm 0 mps 759 mmHg 61%
    18:00 +2°C° 0 mm 0 mps 760 mmHg 62%
    19:00 +1°C° 0 mm 0 mps 760 mmHg 63%
    20:00 +1°C° 0 mm 0 mps 760 mmHg 64%
    21:00 +1°C° 0 mm 0 mps 760 mmHg 65%
    22:00 +1°C° 0 mm 0 mps 760 mmHg 65%
    23:00 +1°C° 0 mm 0 mps 760 mmHg 66%

    20 December, Wednesday

    Time Temperature Precipitation Wind Pressure Humidity
    00:00 +1°C° 0 mm 0 mps 760 mmHg 66%
    01:00 +1°C° 0 mm 0 mps 760 mmHg 66%
    02:00 +1°C° 0 mm 0 mps 760 mmHg 67%
    03:00 0°C° 0 mm 0 mps 759 mmHg 67%
    04:00 0°C° 0 mm 0 mps 759 mmHg 68%
    05:00 0°C° 0 mm 0 mps 759 mmHg 68%
    06:00 0°C° 0 mm 0 mps 760 mmHg 68%
    07:00 +1°C° 0 mm 1 mps 760 mmHg 69%
    08:00 +1°C° 0 mm 1 mps 760 mmHg 69%
    09:00 +3°C° 0 mm 1 mps 760 mmHg 65%
    10:00 +4°C° 0 mm 1 mps 760 mmHg 61%
    11:00 +5°C° 0 mm 1 mps 760 mmHg 57%
    12:00 +4°C° 0 mm 2 mps 760 mmHg 57%
    13:00 +5°C° 0 mm 2 mps 760 mmHg 57%
    14:00 +5°C° 0 mm 2 mps 760 mmHg 56%
    15:00 +4°C° 0 mm 2 mps 760 mmHg 61%
    16:00 +3°C° 0 mm 2 mps 760 mmHg 66%
    17:00 +2°C° 0 mm 2 mps 761 mmHg 71%
    18:00 +2°C° 0 mm 2 mps 761 mmHg 72%
    19:00 +1°C° 0 mm 2 mps 761 mmHg 74%
    20:00 +1°C° 0 mm 2 mps 762 mmHg 75%
    21:00 +1°C° 0 mm 2 mps 762 mmHg 76%
    22:00 +1°C° 0 mm 2 mps 762 mmHg 77%
    23:00 -1°C° 0 mm 2 mps 762 mmHg 77%
    Show more